Location: Ciula Mare
(45.6000°N, 22.8167°E)
Time: 03:54:32
(UTC+00:00)

Lacrosse 5 - Pass Details

Date: 03 February 2023
Orbit: 714 x 724 km, 57.0° (Epoch: 09 March)

Event Time Altitude Azimuth Distance (km) Brightness Sun altitude
Rises 16:45:10 0° 226° (SW) 3,123 6.2 -12.1°
Reaches altitude 10° 16:47:32 10° 226° (SW) 2,207 5.3 -12.5°
Maximum altitude 16:52:37 86° 139° (SE) 731 1.8 -13.4°
Enters shadow 16:56:37 17° 51° (NE) 1,787 3.4 -14.1°
